User: anonymous
Location: Maiden_LMO
(35.5760°N, 81.2120°W)
Time: 08:14:31
(UTC-04:00)
Language:

ADEOS II - Orbit

View from above orbital plane
View from above orbital plane
View from above satellite
View from above satellite

Ground track
Ground track

The orbit data is extracted from the following two-line orbital elements,

1 27597U 02056A   14273.12738705  .00000449  00000-0  20178-3 0  4176
2 27597 098.2777 275.4062 0001544 064.2820 342.6363 14.26866231614067
Epoch (UTC): 30 September 2014 03:03:26
Eccentricity: 0.0001544
inclination: 98.2777°
perigee height: 801 km
apogee height: 803 km
right ascension of ascending node: 275.4062°
argument of perigee: 64.2820°
revolutions per day: 14.26866231
mean anomaly at epoch: 342.6363°
orbit number at epoch: 61406

The dashed part of the orbit path shows where the satellite is in the earth's shadow,  

DLR